This is the latest recevied weather packets stored in our database for station/object BMCB-28. If no packets are shown the sender has not sent any weather packets the latest 10 day(s).
| Time | Temp. | Humidity | Pressure | Rain* | Wind** | Luminosity | Snow |
|---|---|---|---|---|---|---|---|
| 1777383047 | 17.22° C | 43% | 1019.2 hPa | 0 mm | - | 720 W/m² | - |
| 1777381846 | 16.67° C | 45% | 1019.4 hPa | 0 mm | - | 742 W/m² | - |
| 1777380646 | 17.22° C | 46% | 1019.3 hPa | 0 mm | - | 764 W/m² | - |
| 1777379449 | 16.67° C | 47% | 1019.5 hPa | 0 mm | - | 780 W/m² | - |
| 1777377651 | 16.67° C | 46% | 1019.4 hPa | 0 mm | - | 802 W/m² | - |
| 1777376448 | 16.67° C | 44% | 1019.4 hPa | 0 mm | - | 802 W/m² | - |
| 1777369847 | 16.11° C | 43% | 1019.6 hPa | 0 mm | - | 698 W/m² | - |
| 1777369247 | 16.11° C | 42% | 1019.7 hPa | 0 mm | - | 676 W/m² | - |
| 1777366848 | 15.56° C | 46% | 1019.5 hPa | 0 mm | - | 600 W/m² | - |
| 1777358447 | 9.44° C | 61% | 1020.8 hPa | 0 mm | - | 222 W/m² | - |
| 1777357844 | 8.33° C | 63% | 1020.9 hPa | 0 mm | - | 202 W/m² | - |
| 1777356646 | 7.22° C | 66% | 1021.2 hPa | 0 mm | - | 120 W/m² | - |
| 1777355446 | 6.67° C | 68% | 1021.1 hPa | 0 mm | - | 34 W/m² | - |
| 1777353048 | 6.11° C | 71% | 1021.2 hPa | 0 mm | - | 32 W/m² | - |
| 1777347647 | 5.56° C | 71% | 1021.4 hPa | 0 mm | - | 0 W/m² | - |
| 1777339241 | 6.67° C | 65% | 1021.6 hPa | 0 mm | - | 0 W/m² | - |
| 1777336246 | 7.22° C | 60% | 1021.6 hPa | 0 mm | - | 0 W/m² | - |
| 1777335049 | 7.78° C | 59% | 1021.5 hPa | 0 mm | - | 0 W/m² | - |
| 1777333853 | 7.78° C | 57% | 1021.4 hPa | 0 mm | - | 0 W/m² | - |
| 1777331453 | 8.33° C | 58% | 1021.4 hPa | 0 mm | - | 0 W/m² | - |
| 1777329052 | 8.89° C | 57% | 1021.3 hPa | 0 mm | - | 0 W/m² | - |
| 1777328449 | 8.89° C | 56% | 1021.2 hPa | 0 mm | - | 0 W/m² | - |
| 1777326658 | 9.44° C | 56% | 1021.1 hPa | 0 mm | - | 0 W/m² | - |
| 1777324859 | 9.44° C | 55% | 1021.2 hPa | 0 mm | - | 0 W/m² | - |
| 1777322453 | 10° C | 54% | 1021.5 hPa | 0 mm | - | 0 W/m² | - |
* Rain latest hour (hover to see other rain measurements)
** Current wind speed in m/s (hover to see current wind gust speed)